Probability
0 0 0 0 0 0 0 0 0 0 0 0 0 0 0 0 0 0 0 1 5 11 12 10 7 6 4 2 1 0 0 0 0 0 0 0 0 0 0 0 0 0 1 1 1 1 1 1 1
0 0 0 0 0 0 0 0 0 0 0 0 0 0 0 0 0 0 0 1 5 10 12 11 9 8 6 3 1 0 0 0 0 0 0 0 0 0 0 0 0 0 0 1 2 2 2 2 2
0 0 0 0 0 0 0 0 0 0 0 0 0 0 1 2 2 1 1 3 7 11 13 13 13 10 7 4 1 0 0 0 0 0 0 0 0 0 0 0 0 0 0 1 3 4 3 3 3
0 0 0 0 0 0 0 0 0 0 0 0 0 1 2 4 3 2 2 5 10 13 14 15 15 14 10 5 2 0 0 0 0 0 0 0 0 0 0 0 0 0 0 1 3 4 3 3 3
0 0 0 1 0 0 0 0 0 0 0 0 0 1 4 6 6 5 5 9 12 13 13 14 17 17 14 8 3 0 0 0 0 0 0 0 0 0 0 0 0 0 0 1 2 3 3 4 4
0 0 0 0 0 0 0 0 0 0 0 1 1 3 6 8 9 9 10 12 13 13 13 15 16 18 16 11 4 1 0 0 0 0 0 2 2 1 0 0 0 0 0 1 2 3 4 4 4
0 0 0 0 0 0 0 0 0 0 1 2 3 5 9 11 12 13 14 15 13 13 15 16 15 14 12 9 5 2 1 0 0 0 1 4 4 2 1 0 0 0 0 0 1 3 3 4 5
0 0 0 0 0 0 0 0 0 0 1 2 4 6 9 13 14 15 17 16 14 16 18 18 16 11 6 4 3 2 1 0 0 0 1 3 3 2 1 0 0 0 0 0 1 3 4 4 4
0 0 0 0 0 0 0 0 0 0 1 3 4 6 9 12 14 16 18 18 16 17 18 17 16 12 5 2 1 1 1 0 0 0 0 1 1 1 0 0 0 0 0 0 1 2 4 4 3
0 0 0 0 1 0 0 0 0 0 1 2 4 7 9 11 13 14 16 16 16 16 14 13 14 14 10 6 3 1 1 0 0 0 0 0 0 0 0 0 0 0 0 0 1 2 3 3 3
0 0 0 0 0 0 0 0 1 1 1 1 3 6 9 11 11 11 12 13 13 12 12 11 12 14 15 11 7 4 3 1 1 1 0 0 0 0 0 0 0 0 0 0 1 2 3 3 2
0 0 0 0 0 0 0 0 1 1 0 0 1 5 9 11 11 10 8 8 8 9 11 12 12 14 15 13 9 6 5 3 2 2 1 0 0 0 0 1 1 0 0 0 1 3 3 3 2
0 0 0 0 0 0 0 1 1 1 0 0 1 4 8 11 11 10 7 5 5 7 10 12 12 12 13 13 10 7 6 4 3 2 1 0 0 0 0 1 2 1 0 0 1 2 3 3 3
0 0 0 0 0 0 1 1 1 0 0 0 1 4 7 10 11 11 8 4 3 5 8 11 12 11 11 11 9 8 7 5 4 2 1 0 0 0 0 2 2 1 0 0 0 1 3 3 3
0 0 0 0 0 0 1 1 1 1 0 0 1 3 6 9 10 10 7 4 3 4 6 9 11 11 10 9 9 9 8 6 5 4 2 1 0 0 0 2 2 1 0 0 0 1 2 3 2
0 0 0 0 0 0 0 0 1 1 1 0 0 2 6 8 9 9 7 5 4 4 6 9 10 10 9 9 10 10 8 6 6 6 4 1 0 0 1 1 2 1 1 0 0 1 2 2 1
0 0 0 0 0 0 0 0 1 1 1 0 0 3 6 8 8 7 7 6 6 5 6 8 10 9 8 8 10 10 7 6 7 7 5 3 1 1 1 1 2 2 2 1 0 0 1 1 1
0 0 0 0 0 0 0 0 0 0 0 0 1 2 5 6 5 5 6 7 7 6 6 7 8 8 8 8 9 7 6 6 7 6 4 2 1 1 1 1 1 1 1 1 0 0 0 0 0
0 0 0 0 0 0 0 0 0 0 0 0 1 2 4 4 4 4 5 7 8 6 5 6 7 7 8 8 8 6 6 6 6 5 3 1 1 0 0 0 0 0 1 1 1 0 0 0 0
0 0 0 0 0 0 0 0 0 0 0 0 1 2 3 4 4 3 4 6 6 5 5 6 6 6 7 8 8 6 6 6 6 5 3 1 0 0 0 0 0 0 1 2 2 1 0 0 0
0 0 0 0 0 0 0 0 1 2 1 0 1 3 3 4 3 3 3 4 4 3 4 6 6 6 6 7 7 6 5 4 4 3 2 1 0 1 0 0 0 0 1 1 1 1 0 0 0
0 0 0 0 0 0 0 0 2 3 2 1 2 3 3 3 3 3 3 3 3 3 4 6 6 5 6 6 5 4 4 2 1 1 1 0 0 0 0 0 0 0 0 0 0 0 0 0 0
0 0 0 0 0 0 0 0 1 2 2 1 1 2 3 3 3 3 3 3 3 3 4 6 6 5 6 6 4 3 2 1 0 0 0 0 0 0 0 0 0 0 0 0 0 0 0 0 0
0 0 0 0 0 0 0 0 0 1 1 1 0 1 2 2 2 2 3 3 3 3 4 5 4 4 4 4 3 1 1 0 0 0 0 1 1 1 0 0 1 2 1 1 0 0 0 1 1
0 0 0 0 0 0 0 0 0 0 0 0 0 0 1 1 1 1 1 2 3 3 3 3 2 1 1 1 1 0 0 0 0 0 0 1 1 1 1 1 2 3 3 3 2 0 0 1 1
0 0 0 0 0 0 0 0 1 0 0 1 1 0 0 0 0 0 0 1 1 2 2 1 0 0 0 0 0 0 0 0 0 0 0 1 1 1 1 1 2 2 3 4 3 1 0 0 1
0 0 0 0 0 0 0 0 0 0 1 2 2 1 0 0 0 0 0 0 0 1 1 0 0 0 0 0 0 0 0 0 0 0 0 1 0 0 0 1 1 1 1 3 3 1 0 0 0
0 0 0 1 1 1 0 0 0 0 1 2 2 1 0 0 0 0 0 0 0 0 0 0 0 0 0 0 0 0 0 0 0 0 0 0 0 0 0 0 0 0 0 1 2 1 0 0 0
0 0 0 1 2 1 0 0 0 0 1 2 2 1 0 0 0 0 1 1 1 1 0 1 1 1 1 0 0 0 0 0 0 0 0 0 0 0 0 0 0 0 0 1 2 2 1 0 0
0 0 0 0 1 1 0 0 0 0 0 1 1 0 0 0 0 0 1 1 2 2 1 2 2 2 1 0 0 0 0 0 0 0 0 0 0 0 0 0 0 0 0 0 1 2 1 0 0
Wind_Speed
7 5 3 3 5 6 9 6 4 4 4 2 1 2 2 1 1 3 4 4 5 7 8 9 6 6 7 8 8 8 8 8 8 8 8 9 9 9 10 10 11 11 11 11 11 11 11 12 12
5 4 3 4 7 9 8 7 6 4 2 2 3 3 3 2 3 4 2 4 5 7 8 8 7 7 8 8 8 8 8 8 8 8 8 8 8 9 9 9 10 10 10 10 10 10 11 11 11
4 3 3 4 7 9 7 5 5 3 3 2 3 1 0 2 2 2 2 5 6 7 7 8 7 7 8 8 8 8 8 8 8 8 8 8 8 8 9 9 9 9 9 10 10 10 10 10 10
2 3 3 6 10 7 5 3 4 5 3 2 3 4 3 3 2 2 4 5 6 7 7 9 6 8 8 8 8 8 8 8 8 8 8 8 8 8 8 8 8 8 8 9 9 9 9 9 10
2 3 6 8 9 7 4 2 4 5 4 3 3 3 4 4 4 4 5 5 6 6 6 8 6 7 8 8 7 7 7 7 7 7 7 7 8 8 8 8 8 7 8 8 8 8 8 8 9
3 4 7 10 10 7 5 4 5 5 4 3 3 3 4 4 4 4 4 5 5 6 6 7 6 7 7 7 7 7 6 7 7 7 7 7 7 7 7 7 7 7 7 7 7 7 7 8 8
3 4 7 8 8 7 5 4 5 5 5 3 2 3 4 4 3 3 4 4 5 5 5 6 6 6 7 6 5 5 5 5 6 6 7 6 6 7 7 6 6 6 6 6 6 6 7 7 7
2 3 6 8 9 7 4 4 3 4 3 0 2 3 4 2 2 3 4 4 5 4 4 4 4 5 5 6 5 4 4 4 5 6 6 6 5 6 6 6 6 5 5 5 6 6 6 6 6
3 5 8 8 7 5 3 3 2 2 3 2 1 1 1 2 2 4 5 4 4 4 3 3 3 3 4 4 5 4 4 4 4 5 6 4 4 5 5 6 5 4 4 5 5 6 6 5 6
4 7 7 4 3 3 3 2 3 4 4 3 2 1 2 3 2 3 4 4 3 3 3 2 2 2 2 3 3 3 3 3 3 4 5 3 3 3 3 5 5 4 4 4 5 5 5 4 4
3 5 4 3 3 3 4 3 3 6 5 5 4 2 2 3 3 3 2 3 3 3 3 2 2 2 2 2 2 1 1 2 2 3 3 3 2 2 2 3 4 4 3 3 4 4 3 3 2
3 4 4 3 2 3 5 4 3 5 5 3 2 2 3 2 2 2 2 1 1 1 2 2 2 2 2 1 2 2 1 2 1 2 3 2 2 2 2 2 3 3 2 2 2 2 3 3 4
4 3 2 2 2 2 3 5 5 6 5 3 3 3 3 3 2 2 1 1 1 1 1 2 2 2 2 2 1 1 1 2 2 2 3 3 2 2 2 2 2 2 2 3 2 3 4 4 4
2 2 2 3 3 4 4 5 6 7 4 4 4 4 4 3 2 1 0 1 1 2 1 2 2 2 1 1 1 1 1 1 2 2 2 3 3 2 3 3 2 2 2 3 3 3 3 3 3
2 2 3 3 4 4 4 6 8 7 5 5 5 4 4 3 2 2 1 1 1 2 1 1 2 2 2 2 2 1 1 1 2 2 3 3 3 3 3 3 2 2 2 3 3 3 3 3 3
3 4 4 2 3 4 7 9 6 5 6 6 6 5 4 3 3 2 1 1 1 2 1 1 1 1 2 2 2 1 1 1 1 2 2 3 3 4 3 3 3 2 2 3 3 3 3 3 3
5 6 6 3 2 3 7 8 5 5 6 7 6 5 4 4 3 2 1 1 1 1 1 1 1 1 1 1 1 1 1 2 1 1 2 2 3 4 4 3 3 3 3 3 3 3 4 4 3
5 5 5 5 2 4 7 9 7 6 7 8 7 6 5 4 3 2 1 1 1 0 1 1 1 1 1 1 1 1 1 1 1 1 2 2 3 4 4 3 4 4 4 3 4 4 4 3 3
4 6 7 6 4 6 8 10 9 7 7 8 7 6 6 4 2 1 1 0 0 0 1 1 1 1 1 1 1 1 1 1 1 1 2 3 3 4 4 4 5 5 5 5 5 4 4 4 3
6 7 7 4 3 5 7 10 9 7 8 7 7 6 5 4 3 2 1 0 1 0 1 1 1 1 1 1 1 2 2 2 2 2 2 3 3 4 4 4 4 5 5 6 6 5 4 3 4
7 8 6 5 5 4 6 8 8 6 6 6 6 5 5 4 3 3 2 1 0 1 2 1 2 2 1 1 1 0 1 1 2 2 2 3 3 4 4 5 5 5 6 6 6 6 7 5 5
6 4 5 5 5 3 4 6 7 6 6 6 5 5 4 3 3 3 2 1 1 1 2 2 2 1 1 1 1 1 2 2 3 3 3 3 4 4 4 5 6 6 5 6 7 7 6 6 5
3 3 4 5 5 5 6 6 5 5 7 7 5 4 3 2 2 2 2 2 1 1 1 2 2 1 1 1 1 3 3 3 3 3 4 4 4 4 5 5 5 6 6 7 8 8 8 6 7
3 3 3 4 4 6 5 7 5 5 6 6 5 4 3 2 2 2 2 1 1 1 1 2 2 2 1 1 2 3 3 4 4 4 4 4 3 4 5 5 5 5 5 7 7 8 9 8 8
3 3 2 3 4 4 2 6 6 2 3 4 4 4 3 2 2 2 1 1 2 2 2 2 2 2 2 2 3 3 4 5 5 5 5 5 4 4 5 5 5 5 5 6 7 7 8 9 9
4 4 3 3 3 1 3 6 2 0 1 2 2 3 2 2 2 2 2 2 2 3 3 3 3 3 3 3 4 4 4 4 4 5 5 5 5 5 5 6 6 6 6 6 6 6 7 8 8
3 4 1 1 1 4 4 4 3 2 2 2 2 1 1 1 2 3 3 3 3 3 3 3 3 4 4 4 5 5 4 4 5 5 5 5 5 5 6 6 6 7 7 6 6 6 7 7 8
2 2 3 3 3 4 4 4 2 3 4 3 2 1 1 1 2 3 3 3 3 3 3 3 4 4 5 5 4 4 5 5 5 5 6 6 6 6 6 6 6 7 7 6 6 5 6 7 7
4 3 2 2 3 3 3 2 1 2 3 3 2 1 2 3 4 4 4 4 3 3 3 3 4 4 4 5 5 5 5 5 5 5 6 6 6 6 6 6 7 7 7 7 7 7 7 8 8
3 3 4 3 3 3 4 3 3 0 1 1 1 2 3 4 4 4 4 4 4 3 3 3 4 5 5 5 5 5 5 5 5 6 6 6 7 7 7 7 7 8 7 8 8 8 8 8 8
Wind_Direction
321 308 275 234 217 220 226 210 204 176 177 164 163 200 204 191 294 63 63 135 132 144 143 144 136 134 130 123 120 116 113 110 109 108 108 105 100 100 99 98 95 92 89 87 89 91 94 92 91
322 301 240 227 228 217 214 206 194 182 139 135 158 183 175 131 44 61 93 131 142 143 143 144 132 133 130 126 124 120 116 113 110 109 110 108 104 101 99 99 97 94 92 89 89 93 95 95 94
309 283 243 218 227 229 207 181 185 177 161 175 152 148 115 92 72 71 88 142 144 140 142 132 134 133 131 128 127 124 119 116 115 112 111 109 105 103 100 100 100 99 95 92 90 93 97 98 98
273 211 222 230 221 228 232 167 165 168 168 184 174 136 108 57 33 56 117 145 143 139 139 131 136 136 133 130 127 127 123 122 119 116 112 111 107 104 103 100 101 101 101 98 97 95 98 101 102
247 224 212 221 226 220 222 222 193 191 174 163 183 151 119 77 57 83 127 142 138 135 134 132 128 132 131 128 126 126 125 124 122 119 116 112 111 108 105 102 102 104 107 106 103 101 101 104 107
200 221 222 222 217 212 207 212 208 209 185 167 173 157 115 87 74 86 120 132 128 134 135 134 125 119 120 123 122 121 123 125 123 121 115 110 110 111 112 109 106 108 110 111 109 110 108 109 113
222 218 232 229 219 215 208 210 215 216 201 189 204 173 130 102 74 95 115 127 121 123 130 136 143 137 123 112 113 119 123 124 124 121 113 106 105 110 111 109 106 103 108 114 116 113 114 113 116
263 220 224 223 222 223 203 206 215 232 215 157 245 205 150 103 70 113 114 117 114 111 113 125 144 149 144 136 113 106 115 117 120 118 107 102 110 111 112 114 99 99 103 114 121 119 119 120 115
227 225 224 222 224 216 191 199 196 239 199 183 238 304 71 120 113 130 119 111 113 114 117 125 132 144 149 145 129 130 121 109 129 131 119 136 139 133 134 110 105 108 109 116 125 125 122 124 120
217 226 230 234 244 222 197 211 215 195 201 197 176 129 127 147 144 132 133 128 133 137 139 144 149 141 147 145 150 160 155 154 167 156 153 155 148 132 127 117 116 115 111 120 122 128 144 163 146
213 231 228 233 240 233 217 224 241 213 221 226 211 175 142 143 143 140 145 149 151 157 151 166 174 163 146 152 164 164 167 171 173 163 159 155 149 140 147 148 146 146 150 147 145 170 172 170 156
199 221 232 241 253 241 236 232 234 240 244 241 226 197 169 153 162 165 164 167 165 164 175 175 184 179 171 172 173 174 173 176 174 175 172 166 163 169 165 174 174 173 174 173 189 194 178 180 178
214 223 230 233 247 251 238 237 243 249 261 240 195 189 177 185 197 184 171 179 209 200 218 197 198 193 193 182 183 173 183 185 187 193 193 185 183 186 181 189 189 191 183 185 200 204 188 191 187
193 198 242 257 241 249 237 247 240 247 232 209 186 191 188 194 202 198 199 276 257 231 230 240 209 202 203 191 197 181 189 194 198 203 212 201 194 194 198 196 197 199 199 198 206 209 200 198 192
189 216 252 251 236 235 241 248 234 241 225 214 199 197 193 197 202 208 227 263 285 267 234 266 229 206 198 195 201 181 196 205 210 212 217 210 204 199 205 205 203 206 206 205 209 210 205 194 191
209 221 225 214 236 230 227 239 227 226 222 225 216 210 201 196 199 212 237 256 274 301 265 278 260 220 212 208 210 195 190 202 215 223 221 214 208 204 205 210 213 212 210 209 208 207 201 196 197
209 227 234 236 237 226 224 246 244 239 235 233 223 214 204 198 208 228 257 259 246 289 281 248 268 231 218 217 212 203 190 208 211 221 227 219 212 207 206 215 217 209 210 211 209 215 217 205 200
216 231 241 243 250 237 232 247 252 246 241 234 226 214 208 203 208 234 263 250 247 294 274 235 268 249 215 204 205 202 194 213 215 221 235 239 225 216 211 212 214 208 210 211 208 212 226 219 198
238 240 252 260 270 254 242 251 256 245 240 231 221 212 207 204 197 194 204 310 114 16 315 225 251 252 205 210 205 216 227 238 237 240 242 233 229 225 221 221 212 209 211 212 211 208 216 210 192
230 240 255 265 269 261 255 258 251 237 229 220 217 212 207 200 191 176 179 142 56 356 320 308 268 233 208 229 225 230 248 251 248 247 247 246 233 228 224 221 218 212 210 211 211 205 216 209 203
238 243 244 260 293 249 258 248 223 208 207 205 209 210 209 206 199 188 196 205 46 336 298 291 305 257 223 228 213 250 270 265 256 247 249 251 246 238 232 225 223 219 215 213 213 209 213 213 212
235 245 244 240 253 250 247 258 220 206 202 198 200 199 204 205 199 186 198 219 280 296 294 305 302 277 239 215 225 228 235 254 263 264 259 257 247 239 241 235 228 222 223 220 219 217 223 215 211
233 247 243 238 243 259 226 247 228 202 215 209 202 200 193 203 206 199 206 213 274 296 297 309 297 288 276 244 253 250 256 266 269 268 263 264 254 242 239 242 237 230 230 227 224 220 223 223 218
201 221 228 224 231 247 221 230 243 206 218 206 201 201 207 203 209 220 226 222 309 290 291 312 292 289 297 267 260 263 269 275 271 267 266 265 262 248 241 241 240 238 236 231 229 226 225 225 223
204 218 225 217 219 238 172 233 252 220 219 208 203 204 214 215 215 221 235 278 294 296 293 296 286 291 308 294 274 268 267 267 263 263 261 263 259 255 245 244 243 240 239 238 232 230 232 227 223
203 228 248 257 252 257 197 240 267 143 215 206 213 208 216 226 222 223 237 248 270 286 289 281 277 292 296 286 277 268 268 265 264 263 263 262 261 260 260 251 248 245 242 240 237 232 232 231 225
191 202 270 268 276 264 236 246 260 200 211 201 203 208 237 266 250 251 261 265 271 277 278 278 279 287 288 283 279 274 265 266 268 267 264 265 268 268 262 258 252 249 244 241 238 236 231 229 223
283 175 188 211 242 254 255 246 237 192 207 198 209 254 306 326 322 289 279 275 277 281 281 283 280 278 282 280 275 277 274 267 268 268 265 267 268 268 266 262 257 254 248 242 239 241 236 227 224
170 186 210 207 266 262 262 238 74 200 197 207 226 257 292 320 328 321 311 298 280 275 283 294 298 295 284 277 275 275 275 272 268 263 265 268 265 261 258 261 258 254 247 241 237 237 237 230 224
237 214 198 222 225 243 267 272 70 141 187 211 273 302 308 312 317 321 323 316 300 286 297 303 298 299 295 283 276 275 276 273 270 268 266 266 265 263 259 257 257 255 249 244 238 238 239 232 227